INFORMACIÓN METAR y TAF
METAR FOR YBNA
ADDS - METARS form results

(0855 UTC 25 August 2019)
Data provider http://aviationweather.gov/metar/data/
 
METAR text: YBNA 250800Z AUTO 01008KT 9999 // NCD 18/14 Q1016
Conditions at: YBNA (BALLINA BYRON G., AU) observed 0800 UTC 25 August 2019
Temperature: 18.0°C (64°F)
Dewpoint: 14.0°C (57°F) [RH = 77%]
Pressure (altimeter): 30.00 inches Hg (1016.0 mb)
Winds: from the N (10 degrees) at 9 MPH (8 knots; 4.1 m/s)
Visibility: 6 or more miles (10+ km)
Ceiling: at least 12,000 feet AGL
Clouds: sky clear below 12,000 feet AGL
Weather: no significant weather observed at this time

 MAPA DE AEROPUERTO

 INFORMACIÓN DE PISTA
Pista 06 Longitud 6234 ft Ancho 98 ft
Elevación 7 ft Umbral desplazado 0 ft Rumbo de pista 74
Pista 24 Longitud 6234 ft Ancho 98 ft
Elevación 7 ft Umbral desplazado 0 ft Rumbo de pista 254

 FRECUANCIAS DEL AEROPUERTO
Tipo CTAF Nombre CTAF Frecuencia 124.2 MHZ
Tipo FSS Nombre BRISBANE C Frecuencia 120.3 MHZ

 RADIO AYUDAS DEL AEROPUERTO
Tipo NDB Nombre Ballina Frecuencia 206 KHZ



Powered by Virtual Airlines Manager [v2.6.2]